La Crosse, WI

1:46 AM CDT on April 25, 2017 (GMT -0500)
La Crosse Municipal

Weather History for KLSE - January, 2013

Change the Weather History Date:

Sunday, January 6, 2013

  Actual Average Record
Temperature  
Mean Temperature 20 °F 17 °F  
Max Temperature 26 °F 25 °F 52 °F (1933)
Min Temperature 14 °F 9 °F -26 °F (1912)
Degree Days  
Heating Degree Days 45 48  
Month to date heating degree days 295 284  
Since 1 July heating degree days 2985 3128  
Cooling Degree Days 0 0  
Month to date cooling degree days 0 0  
Year to date cooling degree days 0 0  
Moisture  
Dew Point 12 °F    
Average Humidity 70    
Maximum Humidity 84    
Minimum Humidity 55    
Precipitation  
Precipitation 0.00 in 0.03 in 0.48 in (1885)
Month to date precipitation T 0.20  
Year to date precipitation T 0.20  
Snow  
Snow 0.00 in 0.30 in 6.00 in (1980)
Month to date snowfall T 1.7  
Since 1 July snowfall 18.4 17.3  
Snow Depth 5.00 in    
Sea Level Pressure  
Sea Level Pressure 30.20 in    
Wind  
Wind Speed 7 mph (WNW)    
Max Wind Speed 15 mph    
Max Gust Speed 21 mph    
Visibility 9 miles    
Events      
T = Trace of Precipitation, MM = Missing Value Source: NWS Daily Summary

Daily Weather History Graph

Daily Weather History Graph

Search for Another Location

Airport or City:

Trip Planner

Search our weather history database for the weather conditions in past years. The results will help you decide how hot, cold, wet, or windy it might be!

Date:

Astronomy

Jan. 06, 2013 Rise Set
Actual Time 7:39 AM CST 4:43 PM CST
Civil Twilight 7:06 AM CST 5:15 PM CST
Nautical Twilight 6:30 AM CST 5:51 PM CST
Astronomical Twilight 5:55 AM CST 6:26 PM CST
Moon 1:49 AM CST (1/6) 12:14 PM CST (1/6)
Length of Visible Light 10h 09m
Length of Day
9h 04m
Waning Crescent, 33% of the Moon is Illuminated
Jan 6
Waning Crescent
Jan 11
New
Jan 18
First Quarter
Jan 26
Full
Feb 3
Last Quarter

Hourly Weather History & Observations

Time (CST) Temp. Windchill Dew Point Humidity Pressure Visibility Wind Dir Wind Speed Gust Speed Precip Events Conditions
12:53 AM 19.0 °F 12.3 °F 12.0 °F 74% 30.00 in 8.0 mi NW 4.6 mph - N/A   Scattered Clouds
1:53 AM 18.0 °F 12.7 °F 12.0 °F 78% 30.03 in 8.0 mi NNW 3.5 mph - N/A   Partly Cloudy
2:53 AM 19.9 °F 9.3 °F 12.9 °F 74% 30.05 in 8.0 mi NNW 9.2 mph - N/A   Overcast
3:53 AM 21.0 °F 9.3 °F 15.1 °F 78% 30.06 in 7.0 mi NNW 11.5 mph - N/A   Overcast
4:53 AM 21.0 °F 11.4 °F 15.1 °F 78% 30.07 in 7.0 mi NNW 8.1 mph - N/A   Overcast
5:53 AM 21.9 °F 11.7 °F 16.0 °F 78% 30.10 in 7.0 mi NNW 9.2 mph - N/A   Overcast
6:53 AM 21.0 °F 9.3 °F 16.0 °F 81% 30.12 in 8.0 mi NW 11.5 mph - N/A   Overcast
7:41 AM 21.2 °F 9.5 °F 15.8 °F 80% 30.11 in 8.0 mi NW 11.5 mph - N/A   Overcast
7:53 AM 21.0 °F 9.3 °F 16.0 °F 81% 30.16 in 7.0 mi WNW 11.5 mph - N/A   Overcast
8:53 AM 19.9 °F 7.3 °F 15.1 °F 81% 30.20 in 9.0 mi WNW 12.7 mph - N/A   Overcast
9:03 AM 19.4 °F 6.6 °F 15.8 °F 86% 30.15 in 9.0 mi WNW 12.7 mph - N/A   Overcast
9:53 AM 21.0 °F 11.4 °F 14.0 °F 74% 30.24 in 10.0 mi WNW 8.1 mph - N/A   Overcast
10:53 AM 21.0 °F 9.3 °F 14.0 °F 74% 30.26 in 10.0 mi NW 11.5 mph - N/A   Mostly Cloudy
11:07 AM 21.2 °F 10.1 °F 14.0 °F 74% 30.21 in 10.0 mi WNW 10.4 mph - N/A   Scattered Clouds
11:53 AM 21.9 °F 13.4 °F 14.0 °F 72% 30.25 in 10.0 mi NW 6.9 mph - N/A   Clear
12:53 PM 23.0 °F 18.4 °F 14.0 °F 68% 30.23 in 10.0 mi NNW 3.5 mph - N/A   Clear
1:53 PM 24.1 °F - 14.0 °F 65% 30.25 in 10.0 mi Calm Calm - N/A   Clear
2:53 PM 26.1 °F - 12.0 °F 55% 30.27 in 10.0 mi Calm Calm - N/A   Clear
3:53 PM 21.9 °F - 10.0 °F 60% 30.28 in 10.0 mi Calm Calm - N/A   Clear
4:53 PM 19.0 °F - 10.0 °F 68% 30.30 in 10.0 mi Calm Calm - N/A   Clear
5:53 PM 14.0 °F - 8.1 °F 77% 30.30 in 10.0 mi Calm Calm - N/A   Clear
6:53 PM 18.0 °F 7.7 °F 9.0 °F 68% 30.30 in 10.0 mi South 8.1 mph - N/A   Clear
7:53 PM 16.0 °F 7.4 °F 8.1 °F 71% 30.30 in 10.0 mi SSE 5.8 mph - N/A   Clear
8:53 PM 16.0 °F 7.4 °F 8.1 °F 71% 30.30 in 10.0 mi SSE 5.8 mph - N/A   Clear
9:53 PM 14.0 °F 5.1 °F 7.0 °F 74% 30.29 in 10.0 mi South 5.8 mph - N/A   Clear
10:53 PM 15.1 °F 3.3 °F 9.0 °F 77% 30.28 in 10.0 mi SSE 9.2 mph - N/A   Clear
11:53 PM 16.0 °F 1.1 °F 9.0 °F 74% 30.25 in 10.0 mi South 15.0 mph - N/A   Clear